This is the latest recevied weather packets stored in our database for station/object KA1JKB. If no packets are shown the sender has not sent any weather packets the latest 10 day(s).
| Time | Temp. | Humidity | Pressure | Rain* | Wind** | Luminosity | Snow |
|---|---|---|---|---|---|---|---|
| 1788462200 | 30° C | 86% | 1010.4 hPa | 0 mm | - | 115 W/m² | - |
| 1788461900 | 30° C | 85% | 1011 hPa | 0 mm | - | 142 W/m² | - |
| 1788461595 | 30.56° C | 83% | 1011.3 hPa | 0 mm | - | 174 W/m² | - |
| 1788461291 | 31.11° C | 83% | 1011 hPa | 0 mm | - | 469 W/m² | - |
| 1788460987 | 30.56° C | 84% | 1011.3 hPa | 0 mm | - | 757 W/m² | - |
| 1788460682 | 30.56° C | 85% | 1011.4 hPa | 0 mm | - | 766 W/m² | - |
| 1788460376 | 30° C | 86% | 1011.6 hPa | 0 mm | - | 378 W/m² | - |
| 1788460075 | 29.44° C | 87% | 1011.7 hPa | 0 mm | - | 476 W/m² | - |
| 1788459770 | 29.44° C | 86% | 1011.9 hPa | 0 mm | - | 266 W/m² | - |
| 1788459469 | 29.44° C | 86% | 1012.2 hPa | 0 mm | - | 206 W/m² | - |
| 1788459164 | 29.44° C | 86% | 1012 hPa | 0 mm | - | 232 W/m² | - |
| 1788458859 | 29.44° C | 86% | 1012.2 hPa | 0 mm | - | 161 W/m² | - |
| 1788458559 | 29.44° C | 85% | 1012 hPa | 0 mm | - | 212 W/m² | - |
| 1788458258 | 30° C | 85% | 1012.1 hPa | 0 mm | - | 583 W/m² | - |
| 1788457958 | 29.44° C | 84% | 1012.1 hPa | 0 mm | - | 423 W/m² | - |
| 1788457658 | 29.44° C | 85% | 1012 hPa | 0 mm | - | 633 W/m² | - |
| 1788457353 | 30° C | 85% | 1012.2 hPa | 0 mm | - | 432 W/m² | - |
| 1788457048 | 29.44° C | 85% | 1012.2 hPa | 0 mm | - | 837 W/m² | - |
| 1788456744 | 28.89° C | 86% | 1012.3 hPa | 0 mm | - | 390 W/m² | - |
| 1788456443 | 28.89° C | 84% | 1012.1 hPa | 0 mm | - | 291 W/m² | - |
| 1788456139 | 28.89° C | 85% | 1011.9 hPa | 0 mm | - | 249 W/m² | - |
| 1788455834 | 28.33° C | 84% | 1012.1 hPa | 0 mm | - | 275 W/m² | - |
| 1788455530 | 28.33° C | 83% | 1012.1 hPa | 0 mm | - | 278 W/m² | - |
| 1788455228 | 28.89° C | 83% | 1012.1 hPa | 0 mm | - | 294 W/m² | - |
| 1788454940 | 28.89° C | 82% | 1012 hPa | 0 mm | - | 314 W/m² | - |
* Rain latest hour (hover to see other rain measurements)
** Current wind speed in m/s (hover to see current wind gust speed)